Hourly Data Report for April 28, 2021

MIRAMICHI RCS
NEW BRUNSWICK
Current Station Operator: ECCC - MSC

47°00'34.000" N
65°27'54.000" W
33.00 m
8100989
71744
ACQ

Download Data

Hourly Data (April 2021)
Hourly Data Report for April 28, 2021
TIME
LST
Temp Definition
°C
Dew Point Definition
°C
Rel Hum Definition
%
Precip. Amount Definition
mm

Wind Dir Definition
10's deg

Wind Spd Definition
km/h
Visibility Definition
km
Stn Press Definition
kPa
Hmdx Definition


Wind Chill Definition


Weather Definition


00:00 6.1 5.2 94 LegendMM 26 8   100.35     LegendNANA
01:00 6.0 5.0 93 LegendMM 25 7   100.35     LegendNANA
02:00 6.2 4.9 91 LegendMM 27 10   100.30     LegendNANA
03:00 5.9 4.7 92 LegendMM 26 7   100.31     LegendNANA
04:00 5.3 4.3 94 LegendMM 27 7   100.32     LegendNANA
05:00 4.8 3.7 93 LegendMM 26 12   100.38     LegendNANA
06:00 4.8 3.3 90 LegendMM 26 14   100.44     LegendNANA
07:00 6.0 3.3 83 LegendMM 27 14   100.45     LegendNANA
08:00 8.4 3.6 72 LegendMM 28 12   100.49     LegendNANA
09:00 10.3 2.2 57 LegendMM 31 16   100.47     LegendNANA
10:00 11.4 2.1 53 LegendMM 30 20   100.46     LegendNANA
11:00 12.6 2.0 48 LegendMM 32 16   100.44     LegendNANA
12:00 13.5 2.6 48 LegendMM 30 14   100.45     LegendNANA
13:00 14.6 1.4 41 LegendMM 33 13   100.43     LegendNANA
14:00 15.5 1.9 40 LegendMM 33 9   100.38     LegendNANA
15:00 16.2 1.0 36 LegendMM 33 11   100.33     LegendNANA
16:00 17.3 1.9 35 LegendMM 35 10   100.30     LegendNANA
17:00 15.2 3.2 45 LegendMM 7 20   100.34     LegendNANA
18:00 13.1 4.0 54 LegendMM 6 15   100.42     LegendNANA
19:00 10.1 4.7 69 LegendMM 6 12   100.52     LegendNANA
20:00 8.3 3.1 70 LegendMM 7 10   100.62     LegendNANA
21:00 6.4 2.7 78 LegendMM 10 11   100.65     LegendNANA
22:00 5.8 2.7 80 LegendMM 9 3   100.60     LegendNANA
23:00 3.6 1.8 88 LegendMM 1 2   100.60     LegendNANA

Notes on Data Quality.

Legend

  • E = Estimated
  • M = Missing
  • NA = Not Available*
  • [empty] = Indicates an unobserved value
Date modified: